ATLAS 5 CENTAUR R/B - Orbit

View from above orbital plane
View from above orbital plane
View from above satellite
View from above satellite

Ground track
Ground track

The orbit data is extracted from the following two-line orbital elements,

1 30778U 07006G   13140.14085602  .00019572  00000-0  62236-3 0  6806
2 30778 035.6892 125.1074 0021445 233.6607 197.0713 15.31544296344305
Epoch (UTC): 20 May 2013 03:22:49
Eccentricity: 0.0021445
inclination: 35.6892°
perigee height: 456 km
apogee height: 486 km
right ascension of ascending node: 125.1074°
argument of perigee: 233.6607°
revolutions per day: 15.31544296
mean anomaly at epoch: 197.0713°
orbit number at epoch: 34430

The dashed part of the orbit path shows where the satellite is in the earth's shadow,  

Developed and maintained by Chris Peat, Heavens-Above GmbH. Please read the updated FAQ before sending e-mail. Imprint. DLR